Starlink 11254

operational
NORAD ID: 60731 Int'l Des: 2024-152 Owner: SPXS Country: US Constellation: starlink
LEOCIRCULAR

关于 Starlink 11254

正在加载描述...

实时位置

正在加载3D地球...

即将过境

高度历史

Altitude vs Time

uPlot chart will show altitude changes over time

两行轨道根数

1 60731U 24152M 26037.83814138 -.00002781 00000-0 -18116-4 0 9996
2 60731 53.1589 268.0368 0000948 59.8694 300.2418 15.69693942 84009
Epoch: Feb 6, 2026 • Age: 8 hours

当前状态

高度 359.8 km
速度 7.70 km/s
星下点 4.67°N, 75.96°E
发射日期 Aug 28, 2024
运行时间 1.4 years
类型 internet

技术详情

分类 Payload
质量 960.00 kg
干质量 910.00 kg
总质量 960.00 kg
长度 0.30 m
直径 4.10 m
跨度 29.00 m
形状 Box + pan
制造商 SPXS
平台类型 Starlink V2MD
阶段状态 In Orbit
所有者/国家 SPXS/US

大型星座

Loading constellations...